MST,Max TemperatureF,Mean TemperatureF,Min TemperatureF,Max Dew PointF,MeanDew PointF,Min DewpointF,Max Humidity, Mean Humidity, Min Humidity, Max Sea Level PressureIn, Mean Sea Level PressureIn, Min Sea Level PressureIn, Max VisibilityMiles, Mean VisibilityMiles, Min VisibilityMiles, Max Wind SpeedMPH, Mean Wind SpeedMPH, Max Gust SpeedMPH,PrecipitationIn, CloudCover, Events, WindDirDegrees
2013-2-1,80,66,53,57,54,50,88,69,37,30.04,29.98,29.93,15,12,10,12,8,,0.00,6,,283
2013-2-2,78,64,51,61,55,48,94,73,47,30.01,29.96,29.89,15,12,8,12,7,,0.00,4,,311
2013-2-3,84,68,51,63,56,48,100,77,42,29.99,29.93,29.87,15,9,0,13,5,,0.00,4,Fog,292
2013-2-4,80,68,55,63,58,54,100,79,39,29.98,29.93,29.87,15,8,0,10,8,,0.00,2,Fog,359
2013-2-5,84,68,51,61,53,45,94,66,25,29.96,29.90,29.84,15,12,8,110,12,,0.00,2,,321
2013-2-6,87,69,51,55,49,43,82,57,28,29.95,29.90,29.86,15,11,10,17,9,,0.00,2,,329
2013-2-7,82,66,51,63,51,45,77,61,39,29.98,29.92,29.86,15,12,10,16,8,,0.00,1,,317
2013-2-8,82,65,48,54,49,43,87,60,34,29.97,29.91,29.85,15,12,10,15,8,,0.00,0,,301
2013-2-9,80,64,48,61,54,43,94,72,42,29.97,29.89,29.58,15,12,10,12,8,,0.00,2,,326
2013-2-10,77,66,55,63,58,52,94,78,57,30.03,29.97,29.92,15,10,0,14,7,,0.00,4,Fog,347
2013-2-11,75,68,60,61,58,55,88,74,57,30.07,30.02,29.98,15,10,5,26,8,,0.00,4,,303
2013-2-12,75,66,55,57,53,46,82,67,50,30.06,30.00,29.95,15,12,10,18,9,,0.00,6,,284
2013-2-13,75,60,46,55,49,43,87,68,47,29.99,29.94,29.89,15,11,10,18,8,,0.00,2,,290
2013-2-14,77,62,46,55,49,45,93,69,39,29.98,29.92,29.86,15,12,10,15,8,,0.00,1,,320
2013-2-15,80,63,46,52,47,41,87,63,34,29.96,29.93,29.87,15,12,10,13,8,,0.00,4,,319
2013-2-16,82,65,48,66,47,43,82,57,26,29.97,29.92,29.85,15,12,6,15,9,,0.00,1,,328
2013-2-17,78,63,48,57,49,41,82,62,39,29.98,29.94,29.89,15,13,10,13,8,,0.00,0,,307
2013-2-18,84,66,48,54,48,45,87,58,29,29.99,29.93,29.86,15,12,10,13,8,,0.00,0,,305
2013-2-19,80,65,50,54,49,43,82,63,32,29.95,29.88,29.62,15,12,10,14,8,,0.00,4,,28
2013-2-20,82,66,51,55,50,45,88,65,30,29.92,29.87,29.81,15,12,10,13,8,,0.00,6,,298
2013-2-21,78,64,48,52,48,43,88,66,34,29.93,29.89,29.85,15,13,10,21,7,,0.00,5,,295
2013-2-22,75,60,44,50,46,41,93,63,36,29.98,29.92,29.87,15,12,10,15,8,,0.00,4,,322
2013-2-23,75,63,51,54,50,46,88,68,44,29.94,29.89,29.82,15,13,10,14,7,,0.00,5,,208
2013-2-24,71,61,51,57,52,46,88,76,60,29.97,29.90,29.85,15,11,8,10,8,,0.00,5,,335
2013-2-25,75,63,51,54,49,45,82,64,44,29.94,29.87,29.78,14,11,10,17,7,,0.00,3,,288
2013-2-26,77,60,42,52,45,37,87,63,36,29.92,29.85,29.80,15,11,7,16,9,,0.00,0,,315
2013-2-27,77,60,44,52,46,39,87,65,34,29.97,29.91,29.86,15,12,10,17,8,,0.00,3,,293
2013-2-28,77,60,44,54,49,43,93,70,41,29.95,29.90,29.85,12,9,5,16,7,,0.00,2,,312